CZ-4B R/B - Orbit

View from above orbital plane
View from above orbital plane
View from above satellite
View from above satellite

Ground track
Ground track

The orbit data is extracted from the following two-line orbital elements,

1 29093U 06015B   13139.17670071  .00009389  00000-0  39959-3 0   203
2 29093 097.5596 213.2179 0102890 194.8608 249.8830 15.18449196389694
Epoch (UTC): 19 May 2013 04:14:26
Eccentricity: 0.0102890
inclination: 97.5596°
perigee height: 439 km
apogee height: 581 km
right ascension of ascending node: 213.2179°
argument of perigee: 194.8608°
revolutions per day: 15.18449196
mean anomaly at epoch: 249.8830°
orbit number at epoch: 38969

The dashed part of the orbit path shows where the satellite is in the earth's shadow,  

Developed and maintained by Chris Peat, Heavens-Above GmbH. Please read the updated FAQ before sending e-mail. Imprint. DLR